Regional Weather Roundup
Issued by NWS

Home | Current Version | Previous Version | Text Only | Print | Product List | Glossary On
Versions: 1 2 3 4 5 6 7 8 9 10 11 12 13 14 15 16 17 18 19 20 21 22 23 24 25 26 27 28 29 30 31 32 33 34 35 36 37 38 39 40 41 42 43 44 45 46 47 48 49 50
000
ASUS44 KFWD 220415
RWRTX
NORTH TEXAS HOURLY WEATHER ROUNDUP
NATIONAL WEATHER SERVICE FORT WORTH TX
1000 PM CST SUN DEC 21 2014

NOTE: "FAIR" INDICATES FEW OR NO CLOUDS BELOW 12,000 FEET WITH NO
SIGNIFICANT WEATHER AND/OR OBSTRUCTIONS TO VISIBILITY.

TXZ118-119-220500-
DALLAS/FORT WORTH METROPLEX

CITY           SKY/WX    TMP DP  RH WIND       PRES   REMARKS
DFW AIRPORT    CLOUDY    52  47  83 S15       29.77F
DALLAS LOVE    CLOUDY    52  47  83 S16       29.78F
FTW MEACHAM    CLOUDY    52  47  83 S16       29.75F HAZE
DAL-EXECUTIVE  CLOUDY    53  47  79 S9G17     29.78F
FTW-ALLIANCE   CLOUDY    50  47  89 S16G22    29.74F
FTW-SPINKS     CLOUDY    51  48  89 S15       29.77F
ARLINGTON      CLOUDY    53  46  77 S16       29.78F
GRAND PRAIRIE  CLOUDY   N/A N/A N/A MISG      29.79F
ADDISON        CLOUDY    52  47  84 S14G20    29.79F
MESQUITE       CLOUDY    51  47  87 S13       29.81F
LANCASTER      CLOUDY    51  46  84 S12       29.80F
$$

TXZ091>094-102>105-117-120-121-131>134-220500-
NORTH CENTRAL TEXAS

CITY           SKY/WX    TMP DP  RH WIND       PRES   REMARKS
SHRMAN/DENISON CLOUDY    50  48  93 SE16      29.77F
GAINESVILLE    CLOUDY    49  46  89 SE13G20   29.75F
BOWIE          CLOUDY    49  47  93 SE14G24   29.69F
BRIDGEPORT     CLOUDY    50  48  93 S12       29.74F
DECATUR        CLOUDY    49  47  93 S13G21    29.72F
DENTON         CLOUDY    51  47  86 S15       29.74F
MCKINNEY       CLOUDY    50  47  89 S15       29.78F
GREENVILLE     CLOUDY    50  46  87 SE10      29.81S
ROCKWALL       CLOUDY    50  47  90 S10G16    29.79F
TERRELL        CLOUDY    53  48  83 S13       29.81S
WAXAHACHIE     CLOUDY    51  50  97 S10       29.80F
CLEBURNE         N/A     52  50  93 S15       29.77F
GRANBURY       CLOUDY    51  48  89 SE7       29.77F
$$

TXZ083>090-098>101-113>116-127>130-139>142-154-155-220500-
WESTERN NORTH TEXAS

CITY           SKY/WX    TMP DP  RH WIND       PRES   REMARKS
WICHITA FALLS  MOCLDY    49  44  83 S18       29.63F
WF-KICKAPOO    MOCLDY    51  45  80 S13G20    29.65F
VERNON         CLEAR     50  41  71 S10       29.61S
ABILENE        CLOUDY    53  43  68 S18G30    29.69S
ABILENE-DYESS  CLOUDY    53  42  65 SW22      29.67S
BRECKENRIDGE   MOCLDY    54  44  68 S18G24    29.68F
GRAHAM         MOCLDY    50  47  89 SE13G22   29.67F
MINERAL WELLS  CLOUDY    49  46  90 SE12      29.72F
STEPHENVILLE   CLOUDY    49  46  90 S7        29.78S
COMANCHE       CLOUDY    50  48  94 S12G18    29.76S
BROWNWOOD      CLOUDY    48  45  87 S8        29.76R
COLEMAN        CLOUDY    49  45  85 SW12G17   29.74S
BRADY          PTCLDY    46  46 100 S9        29.77S
$$

TXZ143>147-156>162-174-175-220500-
CENTRAL TEXAS

CITY           SKY/WX    TMP DP  RH WIND       PRES   REMARKS
WACO           CLOUDY    54  50  86 S15       29.80F
WACO-MCGREGOR  MOCLDY    54  46  76 S14G22    29.81F
HILLSBORO      CLOUDY    53  49  85 S14       29.80F
CORSICANA      CLOUDY    54  49  83 S15       29.83F
MEXIA          CLOUDY    52  49  90 S8G17     29.82F
HEARNE         CLOUDY    54  51  90 SE8       29.86F
CAMERON        CLOUDY    55  52  92 S12       29.83F
TEMPLE         CLOUDY    54  46  76 S17G23    29.80S
KILLEEN        MOCLDY    52  48  86 S15G23    29.80F
KILLEEN-SKYLRK CLOUDY    54  45  71 S14G20    29.78F
FORT HOOD      CLOUDY    54  49  83 S17G23    29.80S
GATESVILLE     CLOUDY    52  48  87 S9        29.81F
HAMILTON       CLOUDY    50  49  98 S13G22    29.78F
$$

TXZ095>097-106>112-122>126-135>138-148>153-164>167-220500-
EAST TEXAS

CITY           SKY/WX    TMP DP  RH WIND       PRES   REMARKS
PARIS          CLOUDY    48  43  81 S12       29.83F
SULPHUR SPRNGS CLOUDY    50  46  85 S8        29.84F
MOUNT PLEASANT CLOUDY    50  45  81 S7        29.86R
MINEOLA        CLOUDY    52  46  82 S6        29.84F
TYLER          CLOUDY    50  46  86 S8        29.84S
LONGVIEW       CLOUDY    52  46  80 S10       29.83F
MARSHALL       MOCLDY    51  48  90 S5        29.88F
ATHENS         CLOUDY    50  46  87 SE9       29.82F
PALESTINE      CLOUDY    51  48  89 SE6       29.85F
JACKSONVILLE   CLOUDY    50  48  90 S12       29.86F
HENDERSON      CLOUDY    49  47  91 S8        29.84F
NACOGDOCHES    MOCLDY    48  45  87 SE7       29.88F
LUFKIN         CLOUDY    53  48  83 SE10      29.89F
$$

SUPPLEMENTAL OBSERVATIONS (CENTRAL)

CITY           SKY/WX    TMP DP  RH WIND       PRES   REMARKS
LAKE TEXOMA      N/A     50  46  87 SE8         N/A
CADDO GRASSLND   N/A     48  45  87 SE6         N/A
PAT MAYSE LAKE   N/A     48  43  81 SE8         N/A
GREENVILLE       N/A     48  45  87 S8          N/A
CEDAR HILL       N/A     52  48  87 SE12        N/A
PALESTINE        N/A     52  48  87 S8          N/A
LAKE LIMESTONE   N/A     54  50  87 S7G15       N/A
MCGREGOR         N/A     54  50  87 S15G24      N/A
TEMPLE           N/A     54  48  82 S15         N/A
$$

SUPPLEMENTAL OBSERVATIONS (WEST)

CITY           SKY/WX    TMP DP  RH WIND       PRES   REMARKS
MILLERS CREEK    N/A     54  43  66 S15         N/A
POSSUM KINGDOM   N/A     50  45  81 S9          N/A
LBJ GRASSLAND    N/A     50  46  87 S13         N/A
GRANBURY         N/A     50  46  87 SE9         N/A
COMANCHE         N/A     50  48  93 S15         N/A
HAMBY            N/A     54  43  66 S17         N/A
IVIE RESERVOIR   N/A     50  43  76 SW12        N/A
COLORADO BEND    N/A     48  43  81 S10         N/A
$$

SUPPLEMENTAL OBSERVATIONS (EAST)

CITY           SKY/WX    TMP DP  RH WIND       PRES   REMARKS
CLARKSVILLE      N/A     48  45  87 S7G15       N/A
TEXARKANA        N/A     43  39  87 SE2         N/A
LINDEN           N/A     48  45  87 SE2         N/A
CADDO LAKE       N/A     45  43  93 SE2         N/A
GILMER           N/A     50  45  81 S6G14       N/A
HENDERSON        N/A     50  46  87 S10         N/A
LUFKIN           N/A     52  48  87 MISG        N/A
N SABINE NF      N/A     46  45  93 MISG        N/A
S SABINE NF      N/A     48  45  87 SW3         N/A
$$

SUPPLEMENTAL OBSERVATIONS ARE A COLLECTION OF AUTOMATED INSTRUMENTS
THAT ARE MAINTAINED BY A VARIETY OF FEDERAL AND STATE AGENCIES.
CERTAIN ELEMENTS...SUCH AS HUMIDITY VALUES AND SUSTAINED WIND
SPEEDS...MAY BE APPROXIMATED.



USA.gov is the U.S. government's official web portal to all federal, state and local government web resources and services.